Etusivu
METAR-TAF:

METAR-TAF

Lentoasemat :

Pryor Field Regional Airport

Decatur, Alabama, Yhdysvallat

Leveyspiiri: 34-39-29N, Pituuspiiri: 086-56-36W, korkeus merenpinnasta: 180 m

Tämänhetkinen sää

Tämä raportti tehtiin 21 minuuttia sitten, kello 00.53 UTC
tyyntä
Lämpötila 7°C
Kosteus 93%
Ilmanpaine 1015 hPa
Näkyvyys: 9.7 km
selkeää
utua

METAR: KDCU 220053Z AUTO 00000KT 6SM BR CLR 07/06 A2998 RMK AO2 SLP152 T00670061

Aika: 19:14 (01:14 UTC)


TAF: puuttuu

Säähavainnot ja -ennusteet yli 4000 lentoasemalta (METAR- ja TAF-raportit).

Käytössä olevat sääasemat on merkitty karttaan keltaisilla ja punaisilla pisteillä.

Aseta hiiri pisteen päälle nähdäksesi sääaseman nimen.

Klikkaa sitten nähdäksesi säähavainnot ja -ennusteet.

Kartan vaihtaminen: klikkaa mustalla rastilla varustettuja vihreitä pisteitä, niin voit zoomata sisään; viivalla varustettua vihreää pistettä, niin voit zoomata ulos tai vihreitä nuolia, niin pääset viereisille kartoille.


METAR-TAF: